Regional Weather Roundup
Issued by NWS Columbia, SC

Home | Current Version | Previous Version | Text Only | Print | Product List | Glossary On
Versions: 1 2 3 4 5 6 7 8 9 10 11 12 13 14 15 16 17 18 19 20 21 22 23 24 25 26 27
000
ASUS42 KCAE 241910
RWRCAE
REGIONAL WEATHER ROUNDUP
NATIONAL WEATHER SERVICE COLUMBIA SC
300 PM EDT MON JUL 24 2017

NOTE: "FAIR" INDICATES FEW OR NO CLOUDS BELOW 12,000 FEET WITH NO
SIGNIFICANT WEATHER AND/OR OBSTRUCTIONS TO VISIBILITY.

NOT ALL STATIONS ARE QUALITY CONTROLLED BY THE NATIONAL
WEATHER SERVICE. USE DATA WITH CAUTION...ESPECIALLY
DEWPOINT OBSERVATIONS.

SCZ001>056-GAZ040-063>065-077-242000-
...UPSTATE SOUTH CAROLINA...

CITY           SKY/WX    TMP DP  RH WIND       PRES   REMARKS
ANDERSON       CLOUDY    87  70  56 SW7       29.97F
LIBERTY        CLEAR     88  70  54 SW3       29.97F
SPARTANBURG    CLOUDY    86  68  54 SW5       29.96F
CLEMSON        SUNNY     89  73  59 VRB3      29.98F HX  97
GREENVILLE     SUNNY     90  66  45 VRB3      29.98F
GREENWOOD      CLOUDY    84  73  69 CALM      29.97F
GREER          SUNNY     87  68  52 N7        29.96F
ROCK HILL      PTSUNNY   86  74  67 VRB7      29.96F
CHESTER        CLOUDY    82  70  65 NW3       29.96F
LAURENS        PTCLDY    84  73  70 CALM      29.97S


...CENTRAL SOUTH CAROLINA...

CITY           SKY/WX    TMP DP  RH WIND       PRES   REMARKS
COLUMBIA APT   PTSUNNY   91  76  61 S12       29.92F HX 103
COLUMBIA OWENS MOSUNNY   89  75  63 CALM      29.93F HX  99
MCENTIRE ANGB  PTSUNNY   88  77  68 CALM      29.93F HX 100
ORANGEBURG     MOSUNNY   90  77  65 MISG      29.94F HX 103
SUMTER SHAW    CLOUDY    87  76  68 W3        29.91F HX  98
NEWBERRY       PTCLDY    82  75  78 CALM      29.98F
AIKEN          TSTM      72  70  94 S16       29.99R
BARNWELL       FAIR      95  75  52 SW9G15    29.94S HX 107
MANNING        FAIR      88  79  74 CALM      29.94F HX 102
CAMDEN         FAIR      84  75  74 CALM      29.95F
LANCASTER      CLOUDY    84  75  74 SW6       29.96F
WINNSBORO      CLOUDY    82  75  78 S5        29.96F


...EASTERN AND COASTAL SOUTH CAROLINA...

CITY           SKY/WX    TMP DP  RH WIND       PRES   REMARKS
MYRTLE BEACH   PTSUNNY   90  75  62 W12       29.95S HX 100
N MYRTLE BCH   PTSUNNY   87  75  67 SW9       29.93F HX  96
CONWAY         FAIR      86  73  66 SW6       29.94F
MARION         FAIR      86  73  66 W10G16      N/A
HARTSVILLE     CLOUDY    81  73  78 SW6       29.94F
FLORENCE       CLOUDY    85  77  77 W10       29.94S HX  95
DARLINGTON     CLOUDY    82  76  81 W6        29.95S
CHARLESTON APT CLOUDY    83  75  77 SW13      29.97F
MOUNT PLEASANT FAIR      84  75  74 SW10      29.98S
WALTERBORO     MOCLDY    86  77  74 S9        29.97F HX  97
BEAUFORT       PTSUNNY   89  77  67 SW15      29.97F HX 101


...EASTERN GEORGIA...

CITY           SKY/WX    TMP DP  RH WIND       PRES   REMARKS
AUGUSTA BUSH F TSTM      80  72  76 NW15      29.99R
AUGUSTA DANIEL TSTM      76  71  85 S8        29.98R
THOMSON        CLOUDY    78  74  87 W3        30.01R
WASHINGTON     FAIR     N/A N/A N/A W8        29.96F
CLAXTON        FAIR      91  73  54 S6        29.97F HX 100
SYLVANIA       MOCLDY    89  79  73 SW7       29.97F HX 104
STATESBORO     MOSUNNY   91  74  56 SW8G16    29.96F HX 100
SAVANNAH       CLOUDY    92  74  55 SW7       29.97F HX 101


...SOUTHERN NORTH CAROLINA...

CITY           SKY/WX    TMP DP  RH WIND       PRES   REMARKS
CHARLOTTE      PTSUNNY   87  71  58 SW6       29.96F
MONROE         MOSUNNY   87  70  56 VRB5      29.94F
ROCKINGHAM     PTCLDY    86  77  74 SW8       29.94S HX  96
RUTHERFORDTON  SUNNY     86  71  59 CALM      29.99F
ASHEVILLE      SUNNY     85  62  46 NW8       30.04F

$$




USA.gov is the U.S. government's official web portal to all federal, state and local government web resources and services.